{"data":{"norad_id":58046,"intl_designator":"2023-156U","name":"STARLINK-30548","alt_names":[],"object_type":"PAYLOAD","status":"ACTIVE","operator":null,"country":"US","launch_date":"2023-10-09","launch_site_code":"AFWTR","launch_vehicle":null,"mission":null,"orbit_class":"UNKNOWN","rcs_meters":null,"size_class":null,"mass_kg":null,"dimensions":null,"purposes":["comms"],"wikipedia_slug":null,"has_3d_model":false,"image_url":null,"decayed_at":null,"tle_current":{"epoch":"2026-09-20T11:53:27.258432Z","epoch_age_seconds":138075,"freshness":"FRESH","line1":"1 58046U 23156U   26263.49545438 -.00000502  00000+0 -37082-5 0  9994","line2":"2 58046  53.1617 339.4235 0001490  93.7505 266.3668 15.34406732164867","mean_motion":15.34406732,"eccentricity":0.000149,"inclination_deg":53.1617,"raan_deg":339.4235,"arg_perigee_deg":93.7505,"mean_anomaly_deg":266.3668,"bstar":-3.7082e-6,"rev_number":16486,"period_min":93.847346337112,"perigee_km":461.66394914308,"apogee_km":463.70251357203,"semimajor_km":6840.8202313576,"source":"CELESTRAK","updated_at":"2026-09-21T09:00:33.776190Z"}}}